Weather in Ordjonıkıdze

Kazakhstan     52°13′03″N   61°16′49″E
temp.,
°C
wind,
m/s
gust,
m/s
humid.,
%
clouds,
%
prec.,
mm/h
press.,
hPa
HPBL,
m
17 april, sat
sat1723:00+10ne7138948 0.0 1022392
02:00+8ne51092100 0.0 1023313
05:00+6ne379527 0.0 1024183
08:00+7ene478913 0.0 1024279
11:00+11e457433 0.0 1024576
14:00+15e336340 0.0 10231042
17:00+16e225327 0.0 10211424
20:00+13ene33685 0.0 102133
18 april, sun
sun1823:00+10e33794 0.0 102032
02:00+9ese23840 0.0 101924
05:00+8ssw11825 0.0 101910
08:00+10nw34784 0.0 1018149
11:00+12nne55680 0.0 1018666
14:00+13nne55492 0.0 10191105
17:00+13nne664370 0.0 10201680
20:00+7ene812695 0.0 1022727
19 april, mon
mon1923:00+4ene913655 0.0 1025789
02:00+2ene81158100 0.0 1027830
05:00−1ene8126167 0.0 1030734
08:00−1ene8115195 0.0 1031919
11:00+1ene8104076 0.0 10321220
14:00+3ene893591 0.0 10311402
17:00+2ene8935100 0.0 10321480
20:000ene7104496 0.0 1033876
20 april, tue
tue2023:00−1ene711490 0.0 1034813
02:00−2ene69510 0.0 1035909
05:00−3ene59520 0.0 1036868
08:00−2ene79420 0.0 1037910
11:00+1ene67320 0.0 10361111
14:00+4ene56305 0.0 10351208
17:00+5ene34305 0.0 10341123
20:00+3ene22430 0.0 103522
21 april, wed
wed2123:00+1ese22470 0.0 103510
02:00+1ssw11470 0.0 103510
05:000w22480 0.0 103514
08:00+3wnw23410 0.0 1035217
11:00+7nw22320 0.0 1035697
14:00+9nw22280 0.0 10341061
17:00+11nw22270 0.0 10331198
20:00+9wsw22380 0.0 103410